Location: Saint-Maurice-d�Ard�che
(44.5216°N, 4.4002°E)
Time: 21:16:33
(UTC+00:00)

Cosmos 1825 Rocket - Pass Details

Date: 30 March 2020
Orbit: 604 x 631 km, 82.5° (Epoch: 05 June)

Event Time Altitude Azimuth Distance (km) Brightness Sun altitude
Rises 19:30:53 0° 1° (N) 2,920 7.3 -15.1°
Reaches altitude 10° 19:33:23 10° 12° (NNE) 2,004 6.3 -15.6°
Maximum altitude 19:37:17 29° 74° (ENE) 1,135 4.5 -16.2°
Enters shadow 19:37:58 28° 91° (E) 1,170 4.4 -16.3°
